Regional Weather Roundup
Issued by NWS Newport/Morehead, NC

Current Version | Previous Version | Text Only | Print | Product List | Glossary On
Versions: 1 2 3 4 5 6 7 8 9 10 11 12 13 14 15 16 17 18 19 20 21 22 23 24 25 26 27 28 29 30 31 32 33 34 35 36 37 38 39 40 41 42 43 44 45 46 47 48 49 50
000
ASUS42 KMHX 100912
RWRMHX
WEATHER ROUNDUP FOR EASTERN NORTH CAROLINA
NATIONAL WEATHER SERVICE NEWPORT/MOREHEAD CITY NC
400 AM EST SAT DEC 10 2016

NOTE: "FAIR" INDICATES FEW OR NO CLOUDS BELOW 12,000 FEET
WITH NO SIGNIFICANT WEATHER AND/OR OBSTRUCTIONS TO VISIBILITY

NCZ015>017-031-032-045>047-102-103-101000-
NORTH COAST

CITY           SKY/WX    TMP DP  RH WIND       PRES   REMARKS
EDENTON        NOT AVBL
ELIZABETH CITY CLEAR     24  18  77 W8        30.50S
KITTY HAWK     SUNNY     34  23  65 NW7       30.45S
MANTEO         CLEAR     34  25  70 N9        30.47S

$$

NCZ045>047-081-094-103-104-101000-
CENTRAL COAST

CITY           SKY/WX    TMP DP  RH WIND       PRES   REMARKS
FRISCO         CLEAR     37  20  50 VRB7      30.46S

$$

NCZ095-097-098-100-101-101000-
SOUTHERN COAST

CITY           SKY/WX    TMP DP  RH WIND       PRES   REMARKS
BEAUFORT       CLEAR     33  23  66 N12       30.49S
CEDAR ISLAND   NOT AVBL
JACKSONVILLE   CLEAR     29  19  66 N8        30.50S
PINEY ISLAND   SUNNY    N/A N/A N/A N8        30.48S
WILMINGTON     CLEAR     28  19  69 N7        30.51R


$$

NCZ011>013-027>030-043-044-078>080-089-090>093-098-101000-
COASTAL PLAIN

CITY           SKY/WX    TMP DP  RH WIND       PRES   REMARKS
AHOSKIE          N/A     24  16  71 CALM      30.52S
CLINTON        PTCLDY    28  20  71 CALM      30.52F
ELIZABETHTOWN  CLEAR     28  20  73 CALM      30.51F
GOLDSBORO      CLEAR     27  16  63 CALM      30.50S
GREENVILLE     CLEAR     28  19  69 CALM      30.51S
HAVELOCK       CLEAR     32  21  64 N9        30.50S
KENANSVILLE    CLEAR     27  18  69 NW5       30.51F
KINSTON        PTCLDY    28  19  69 NW6       30.51F
NEW BERN       PTCLDY    29  19  66 N7        30.51S
RICHLANDS      PTCLDY    23  19  85 CALM      30.51S
ROCKY MOUNT    CLEAR     25  17  72 NW3       30.52S
WASHINGTON     PTCLDY    26  18  71 NW3       30.51S
WHITEVILLE     CLEAR     30  20  66 N3        30.51R

$$

AMZ130-135-150-152-154-156-158-170-250-252-270-ANZ085-086-088-633-658-670-101000-
MARINE OBSERVATIONS

STATION/POSITION TIME  TEMP    WIND        PRES    WAVE   SWELL
                       AIR SEA DIR/SP/G            HT/PER HT/PER
                 (UTC) (F)     (DEG/KT/KT) (MB)    (FT/S) (FT/S)
CHESAPEAKE LIGHT NOT AVBL
64 E VA BEACH    0850   40 58  330/ 17/ 21 1030.0    5/ 6
DUCK             0848   36 52  330/ 17/ 20 1031.0
2 E DUCK         NOT AVBL
OREGON INLET     0836   35 50  320/ 11/ 16 1031.5
13E OREGON INLT  NOT AVBL
HATTERAS CG      0848   39 52  330/ 17/ 19 1031.0
DIAMOND BUOY     0850   42 77  340/ 14/ 19 1031.1    5/ 9   3/ 9
CAPE LOOKOUT     0900   36     340/ 12/ 15 1031.7
BEAUFORT LAB     0848   34 50  340/ 10/ 15 1031.2
30 SE NEW RVR IN 0808   42 69  360/ 12/ 17 1031.9
30 SE NEW RVR IN 0843      69                N/A     3/ 4
27 SE WRIGHTSVLE 0808   43 69  360/ 12/ 19 1031.4
5 SE WRIGHTSVLE  0808   37 60   10/ 19/ 33 1031.5
225 S CAPE HAT   0850   58 73  360/ 14/ 17 1026.7    6/ 8   5/ 8
41 SE CHARLESTON 0750   50 73   20/ 14/ 19 1030.2    4/ 5   2/ 8

$$




USA.gov is the U.S. government's official web portal to all federal, state and local government web resources and services.